Torna al catalogo

STARLINK-35215

AttivoComunicazioniSSO
NORAD 65813·PAYLOAD·🇺🇸 United States

Lanciato Sep 26, 2025 da Vandenberg Space Force Base

Loading…

Prossimi Passaggi (prossime 24 ore)

TLE

AggiornatoSource: CelesTrak SupGP

Epoca: Sep 14, 2026, 22:13 UTC

1 65813C 25218Y   26257.92618056  .00064467  00000+0  20017-2 0  2575
2 65813  97.2846 115.3727 0001664  92.2127  87.6349 15.33398067    10

Traccia STARLINK-35215 in tempo reale con AllMySat

Download on the App Store